TK5EP-13 Weather Reports


Display with metric or nautical units.
time (UTC)temp
F
wind
direction
speed
MPH
gust
MPH
rain 1hr
in
rain 24hr
in
rain mn
in
humidity
%
barometer
mb
20260505083214 56 202 16.0 22.0 0.00 0.00 0.00 97
20260505082713 55 186 16.0 23.0 0.00 0.00 0.00 97
20260505082212 55 188 14.0 23.0 0.00 0.00 0.00 97
20260505081711 55 197 16.0 25.0 0.00 0.00 0.00 97
20260505081210 55 203 16.0 25.0 0.00 0.00 0.00 97
20260505080709 55 205 18.0 23.0 0.00 0.00 0.00 97
20260505080209 55 188 16.0 24.0 0.00 0.00 0.00 97
20260505075705 55 189 19.0 24.0 0.00 0.00 0.00 97
20260505075204 55 193 18.0 23.0 0.00 0.00 0.00 97
20260505074703 55 194 16.0 22.0 0.00 0.00 0.00 97
20260505074202 55 190 17.0 22.0 0.00 0.00 0.00 97
20260505073659 55 204 18.0 22.0 0.00 0.00 0.00 97
20260505073158 55 197 15.0 22.0 0.00 0.00 0.00 97
20260505072657 55 207 15.0 23.0 0.00 0.00 0.00 97
20260505072156 55 215 16.0 23.0 0.00 0.00 0.00 97
20260505071655 55 214 17.0 25.0 0.00 0.00 0.00 97
20260505071154 55 199 17.0 25.0 0.00 0.00 0.00 97
20260505070651 55 184 17.0 24.0 0.00 0.00 0.00 97
20260505070150 55 186 15.0 23.0 0.00 0.00 0.00 97
20260505065649 55 214 14.0 21.0 0.00 0.00 0.00 97
20260505065148 55 207 15.0 22.0 0.00 0.00 0.00 97
20260505064645 55 193 16.0 26.0 0.00 0.00 0.00 97
20260505064144 55 192 17.0 26.0 0.00 0.00 0.00 97
20260505063643 55 188 17.0 23.0 0.00 0.00 0.00 97
20260505063142 55 197 18.0 22.0 0.00 0.00 0.00 97
20260505062641 55 205 17.0 23.0 0.00 0.00 0.00 97
20260505062138 55 186 18.0 23.0 0.00 0.00 0.00 97
20260505061637 55 196 18.0 23.0 0.00 0.00 0.00 97
20260505061135 55 196 17.0 23.0 0.00 0.00 0.00 97
20260505060634 55 203 19.0 23.0 0.00 0.00 0.00 97
20260505060133 55 197 17.0 23.0 0.00 0.00 0.00 97
20260505055632 55 199 16.0 23.0 0.00 0.00 0.00 97
20260505055131 55 196 18.0 23.0 0.00 0.00 0.00 97
20260505054631 55 197 17.0 24.0 0.00 0.00 0.00 97
20260505054130 55 205 18.0 24.0 0.00 0.00 0.00 97
20260505053629 55 210 19.0 24.0 0.00 0.00 0.00 97
20260505053128 55 212 19.0 25.0 0.00 0.00 0.00 97
20260505052627 55 200 18.0 25.0 0.00 0.00 0.00 97
20260505052126 55 195 19.0 27.0 0.00 0.00 0.00 97
20260505051625 55 220 18.0 27.0 0.00 0.00 0.00 97
20260505051124 55 201 18.0 27.0 0.00 0.00 0.00 97
20260505050624 55 193 20.0 26.0 0.00 0.00 0.00 97
20260505050123 55 199 19.0 29.0 0.00 0.00 0.00 97
20260505041613 55 194 23.0 31.0 0.00 0.00 0.00 96
20260505041112 55 200 20.0 31.0 0.00 0.00 0.00 96
20260505040611 55 189 23.0 30.0 0.00 0.00 0.00 96
20260505040110 55 194 21.0 32.0 0.00 0.00 0.00 96
20260505035609 55 192 21.0 31.0 0.00 0.00 0.00 96
20260505035108 55 187 21.0 30.0 0.00 0.00 0.00 96
20260505034607 55 201 21.0 30.0 0.00 0.00 0.00 96
20260505034107 55 197 19.0 29.0 0.00 0.00 0.00 96
20260505033606 55 188 18.0 30.0 0.00 0.00 0.00 96
20260505033105 55 189 21.0 30.0 0.00 0.00 0.00 96
20260505032604 55 188 19.0 27.0 0.00 0.00 0.00 95
20260505032103 55 188 14.0 27.0 0.00 0.00 0.00 95
20260505031559 54 195 17.0 28.0 0.00 0.00 0.00 95
20260505031058 54 186 18.0 28.0 0.00 0.00 0.00 95
20260505030555 54 186 15.0 24.0 0.00 0.00 0.00 95
20260505030054 55 184 16.0 25.0 0.00 0.00 0.00 95
20260505025553 54 185 13.0 25.0 0.00 0.00 0.00 95
20260505025050 54 184 15.0 22.0 0.00 0.00 0.00 95
20260505024546 54 180 13.0 22.0 0.00 0.00 0.00 95
20260505024045 55 178 14.0 22.0 0.00 0.00 0.00 95
20260505023544 55 175 12.0 23.0 0.00 0.00 0.00 95
20260505023044 55 173 12.0 22.0 0.00 0.00 0.00 95
20260505022543 54 166 14.0 22.0 0.00 0.00 0.00 95
20260505022042 55 171 13.0 23.0 0.00 0.00 0.00 95
20260505021541 55 175 15.0 23.0 0.00 0.00 0.00 95
20260505021040 55 174 16.0 23.0 0.00 0.00 0.00 95
20260505020539 55 177 15.0 23.0 0.00 0.00 0.00 95
20260505020039 54 173 17.0 23.0 0.00 0.00 0.00 95
20260505015535 54 173 15.0 26.0 0.00 0.00 0.00 94
20260505015031 55 181 15.0 26.0 0.00 0.00 0.00 95
20260505014530 55 178 16.0 25.0 0.00 0.00 0.00 95
20260505014029 54 174 17.0 24.0 0.00 0.00 0.00 94
20260505013526 54 176 16.0 23.0 0.00 0.00 0.00 94
20260505013025 54 165 16.0 23.0 0.00 0.00 0.00 94
20260505012524 54 169 15.0 22.0 0.00 0.00 0.00 94
20260505012023 55 149 12.0 23.0 0.00 0.00 0.00 94
20260505011522 54 152 15.0 23.0 0.00 0.00 0.00 94
20260505011021 54 168 15.0 24.0 0.00 0.00 0.00 94
20260505010520 55 172 14.0 25.0 0.00 0.00 0.00 94
20260505010019 55 172 14.0 26.0 0.00 0.00 0.00 94
20260505005518 54 174 17.0 26.0 0.00 0.00 0.00 94
20260505005017 55 182 20.0 28.0 0.00 0.00 0.00 94
20260505004516 55 178 20.0 28.0 0.00 0.00 0.00 94
20260505004015 55 177 17.0 28.0 0.00 0.00 0.00 94
20260505003514 55 171 18.0 27.0 0.00 0.00 0.00 94
20260505003013 55 171 18.0 27.0 0.00 0.00 0.00 94
20260505002513 55 174 17.0 27.0 0.00 0.00 0.00 94
20260505002009 55 175 15.0 27.0 0.00 0.00 0.00 93
20260505001508 55 172 14.0 24.0 0.00 0.00 0.00 93
20260505001008 55 174 15.0 24.0 0.00 0.00 0.00 93
20260505000507 55 179 18.0 26.0 0.00 0.00 0.00 93
20260505000006 55 177 15.0 27.0 0.00 0.00 0.00 93
20260504235505 55 170 17.0 31.0 0.00 0.00 0.00 93
20260504235004 55 163 21.0 31.0 0.00 0.00 0.00 93
20260504234504 55 166 19.0 31.0 0.00 0.00 0.00 93
20260504234003 55 166 17.0 26.0 0.00 0.00 0.00 93
20260504233502 55 169 19.0 29.0 0.00 0.00 0.00 93
20260504233001 55 161 21.0 29.0 0.00 0.00 0.00 93
20260504232500 55 152 19.0 28.0 0.00 0.00 0.00 93
20260504231959 55 174 14.0 32.0 0.00 0.00 0.00 92
20260504231459 55 164 18.0 28.0 0.00 0.00 0.00 92
20260504230958 55 157 21.0 29.0 0.00 0.00 0.00 92
20260504230457 55 164 19.0 29.0 0.00 0.00 0.00 92
20260504225956 55 164 17.0 27.0 0.00 0.00 0.00 92
20260504225455 55 151 16.0 28.0 0.00 0.00 0.00 92
20260504224954 55 158 19.0 28.0 0.00 0.00 0.00 92
20260504224453 55 158 18.0 25.0 0.00 0.00 0.00 91
20260504223953 55 158 19.0 30.0 0.00 0.00 0.00 91
20260504223449 55 151 18.0 30.0 0.00 0.00 0.00 91
20260504222948 55 159 18.0 30.0 0.00 0.00 0.00 91
20260504222445 55 151 18.0 31.0 0.00 0.00 0.00 91
20260504221944 55 147 16.0 31.0 0.00 0.00 0.00 90
20260504221443 55 146 16.0 29.0 0.00 0.00 0.00 90
20260504220942 55 147 18.0 29.0 0.00 0.00 0.00 90
20260504220442 55 127 13.0 26.0 0.00 0.00 0.00 90
20260504215941 55 149 15.0 26.0 0.00 0.00 0.00 90
20260504215440 55 134 12.0 22.0 0.00 0.00 0.00 90
20260504214939 55 133 10.0 22.0 0.00 0.00 0.00 91
20260504214438 55 109 10.0 20.0 0.00 0.00 0.00 91
20260504213937 55 96 8.0 22.0 0.00 0.00 0.00 91
20260504213436 55 105 8.0 22.0 0.00 0.00 0.00 91
20260504212936 55 84 7.0 20.0 0.00 0.00 0.00 91
20260504212435 55 90 8.0 20.0 0.00 0.00 0.00 91
20260504211934 55 94 7.0 18.0 0.00 0.00 0.00 91
20260504211433 55 96 8.0 20.0 0.00 0.00 0.00 91
20260504210930 55 97 9.0 20.0 0.00 0.00 0.00 92
20260504210429 54 97 9.0 19.0 0.00 0.00 0.00 92
20260504205928 54 92 10.0 19.0 0.00 0.00 0.00 92
20260504205427 54 92 11.0 19.0 0.00 0.00 0.00 92
20260504204926 54 89 10.0 20.0 0.00 0.00 0.00 92
20260504204425 54 88 11.0 20.0 0.00 0.00 0.00 92
20260504203924 54 97 10.0 22.0 0.00 0.00 0.00 92
20260504203424 54 99 9.0 22.0 0.00 0.00 0.00 92
20260504202923 53 98 9.0 21.0 0.00 0.00 0.00 92
20260504202422 53 88 11.0 18.0 0.00 0.00 0.00 91
20260504201921 53 90 10.0 19.0 0.00 0.00 0.00 91
20260504201420 53 94 10.0 16.0 0.00 0.00 0.00 91
20260504200919 54 95 10.0 19.0 0.00 0.00 0.00 91
20260504200418 53 94 10.0 19.0 0.00 0.00 0.00 91
20260504195917 54 87 10.0 17.0 0.00 0.00 0.00 91
20260504195416 53 88 9.0 18.0 0.00 0.00 0.00 90
20260504194915 53 90 10.0 18.0 0.00 0.00 0.00 90
20260504194415 53 85 10.0 17.0 0.00 0.00 0.00 90
20260504193914 53 81 9.0 15.0 0.00 0.00 0.00 89
20260504193413 53 85 8.0 14.0 0.00 0.00 0.00 88
20260504192912 53 83 8.0 14.0 0.00 0.00 0.00 88
20260504192411 53 96 8.0 14.0 0.00 0.00 0.00 87
20260504191910 53 102 8.0 14.0 0.00 0.00 0.00 86
20260504191409 53 107 7.0 15.0 0.00 0.00 0.00 86
20260504190909 53 119 9.0 20.0 0.00 0.00 0.00 85
20260504190405 53 144 12.0 20.0 0.00 0.00 0.00 85
20260504185904 53 146 12.0 19.0 0.00 0.00 0.00 84
20260504185403 54 154 14.0 19.0 0.00 0.00 0.00 83
20260504184903 54 149 13.0 19.0 0.00 0.00 0.00 81
20260504184402 54 131 9.0 17.0 0.00 0.00 0.00 79
20260504183901 55 136 9.0 18.0 0.00 0.00 0.00 79
20260504183400 55 119 9.0 16.0 0.00 0.00 0.00 80
20260504182900 54 120 8.0 15.0 0.00 0.00 0.00 80
20260504182359 54 114 5.0 13.0 0.00 0.00 0.00 80
20260504181858 55 115 7.0 15.0 0.00 0.00 0.00 80
20260504181357 55 94 4.0 15.0 0.00 0.00 0.00 79
20260504180856 55 96 6.0 13.0 0.00 0.00 0.00 79
20260504180355 55 98 7.0 13.0 0.00 0.00 0.00 78
20260504175852 56 97 7.0 11.0 0.00 0.00 0.00 77
20260504175350 56 109 5.0 10.0 0.00 0.00 0.00 76
20260504174849 56 100 4.0 13.0 0.00 0.00 0.00 76
20260504174348 56 91 7.0 13.0 0.00 0.00 0.00 77
20260504173847 55 96 7.0 14.0 0.00 0.00 0.00 77
20260504173344 55 90 7.0 16.0 0.00 0.00 0.00 77
20260504172843 55 88 10.0 16.0 0.00 0.00 0.00 77
20260504172342 55 76 10.0 14.0 0.00 0.00 0.00 77
20260504171841 55 86 6.0 8.0 0.00 0.00 0.00 77
20260504171341 55 87 5.0 10.0 0.00 0.00 0.00 76
20260504170840 55 90 6.0 13.0 0.00 0.00 0.00 76
20260504170338 56 87 7.0 14.0 0.00 0.00 0.00 76
20260504160324 57 84 5.0 10.0 0.00 0.00 0.00 71
20260504150814 60 8 1.0 6.0 0.00 0.00 0.00 71
20260504150313 60 151 2.0 7.0 0.00 0.00 0.00 70
20260504141302 59 156 6.0 9.0 0.00 0.00 0.00 63
20260504140801 60 178 5.0 8.0 0.00 0.00 0.00 62
20260504140300 60 161 4.0 9.0 0.00 0.00 0.00 61
20260504130748 60 190 9.0 13.0 0.00 0.00 0.00 63
20260504130248 60 208 7.0 12.0 0.00 0.00 0.00 63
20260504120236 66 215 7.0 13.0 0.00 0.00 0.00 55
20260504110222 68 239 3.0 16.0 0.00 0.00 0.00 51
20260504100208 68 224 3.0 14.0 0.00 0.00 0.00 48